Terminal Aerodrome Forecast
Issued by NWS

Home | Current Version | Previous Version | Text Only | Print | Product List | Glossary On
Versions: 1 2 3 4 5 6 7 8 9 10 11 12 13 14 15 16 17 18 19 20 21
000
FTUS43 KILX 260500
TAFBMI
TAF
KBMI 260528Z 2606/2706 14010KT P6SM OVC060
     FM261100 20010KT P6SM SCT070
     FM261500 22010KT P6SM SCT150
     FM262300 VRB06KT P6SM VCTS SCT050CB BKN080
      TEMPO 2701/2703 VRB25G35KT 3SM TSRA BR SCT030CB BKN040=

USA.gov is the U.S. government's official web portal to all federal, state and local government web resources and services.